contact:dominique.lefevre@mio.osupytheas.fr, maurice.libes@osupytheas.fr, didier.mallarino@osupytheas.fr
Project:EMSO http://www.emso-fr.org/EMSO-France
Depth: 2436.0 m
Title:EMSO Ligure Ouest : Data MII capteur AQUADOPP
Date,Latitude,Longitude,X_East,Y_North,Z_Up,Amplitude_X,Amplitude_Y,Amplitude_Z,Batterie,SoundSpeed,Heading,Pitch,Roll,Pressure,TIS,Speed,Direction
, degrees North, degrees East, m.s-1, m.s-1,m.s-1, 1, 1, 1, Volt, m.s-1, degree, degree, degree, dbar, degree_C, m.s-1, degree
2023-02-11T00:04:03,42.805,6.029,-0.025,0.01,-0.003,102.0,101.0,101.0,13.3,1505.2,316.1,-0.8,1.8,2471.251,13.29,0.026,291.8
2023-02-11T00:07:03,42.805,6.029,-0.009,0.008,-0.008,102.0,102.0,101.0,13.4,1505.2,330.0,-0.8,1.8,2471.221,13.29,0.012,311.6
2023-02-11T00:10:03,42.805,6.029,0.011,0.011,0.013,102.0,101.0,101.0,13.4,1505.2,326.5,-0.8,1.8,2471.238,13.29,0.015,45.0
2023-02-11T00:13:03,42.805,6.029,-0.017,0.006,0.003,102.0,102.0,101.0,13.4,1505.2,329.7,-0.8,1.8,2471.243,13.29,0.018,289.4
2023-02-11T00:16:03,42.805,6.029,-0.006,0.01,-0.018,102.0,102.0,101.0,13.4,1505.2,330.8,-0.7,1.8,2471.244,13.29,0.011,329.0
2023-02-11T00:19:03,42.805,6.029,-0.02,0.005,-0.009,102.0,102.0,101.0,13.4,1505.2,324.2,-0.8,1.8,2471.18,13.29,0.02,284.0
2023-02-11T00:22:03,42.805,6.029,-0.011,-0.003,-0.038,103.0,101.0,102.0,13.3,1505.2,329.8,-0.8,1.8,2471.238,13.29,0.011,254.7
2023-02-11T00:25:03,42.805,6.029,-0.006,0.008,0.017,103.0,101.0,100.0,13.4,1505.2,333.8,-0.7,1.8,2471.152,13.29,0.01,323.1
2023-02-11T00:28:03,42.805,6.029,-0.023,0.008,-0.007,102.0,102.0,100.0,13.4,1505.2,324.7,-0.8,1.8,2471.19,13.29,0.024,289.2
2023-02-11T00:31:03,42.805,6.029,-0.039,0.0,-0.012,101.0,101.0,101.0,13.4,1505.2,332.1,-0.8,1.9,2471.198,13.29,0.039,270.0
2023-02-11T00:34:03,42.805,6.029,-0.023,0.015,0.019,101.0,101.0,101.0,13.4,1505.2,332.1,-0.7,1.8,2471.164,13.29,0.027,303.1
2023-02-11T00:37:03,42.805,6.029,-0.011,0.008,0.01,102.0,102.0,101.0,13.3,1505.2,322.4,-0.8,1.8,2471.193,13.29,0.013,306.0
2023-02-11T00:40:03,42.805,6.029,-0.004,0.013,-0.007,102.0,102.0,101.0,13.4,1505.2,323.9,-0.8,1.8,2471.177,13.29,0.013,342.9
2023-02-11T00:43:03,42.805,6.029,-0.02,-0.001,-0.005,102.0,103.0,100.0,13.4,1505.2,326.0,-0.8,1.8,2471.195,13.29,0.02,267.1
2023-02-11T00:46:03,42.805,6.029,-0.005,0.01,-0.005,104.0,100.0,102.0,13.4,1505.2,330.9,-0.8,1.8,2471.153,13.29,0.011,333.4
2023-02-11T00:49:03,42.805,6.029,-0.006,-0.003,0.011,101.0,102.0,101.0,13.4,1505.2,330.3,-0.8,1.8,2471.2,13.29,0.006,243.4
2023-02-11T00:52:03,42.805,6.029,-0.04,0.025,-0.012,102.0,102.0,101.0,13.4,1505.2,322.4,-0.8,1.8,2471.2,13.29,0.047,302.0
2023-02-11T00:55:03,42.805,6.029,0.009,-0.012,0.002,103.0,102.0,100.0,13.3,1505.2,328.2,-0.8,1.8,2471.143,13.29,0.015,143.1
2023-02-11T00:58:03,42.805,6.029,-0.012,0.018,-0.001,103.0,103.0,100.0,13.4,1505.2,333.8,-0.8,1.8,2471.163,13.29,0.021,326.3
2023-02-11T01:04:03,42.805,6.029,0.04,-0.037,0.002,103.0,104.0,103.0,13.3,1505.2,323.6,-0.8,1.8,2471.215,13.29,0.054,132.8
2023-02-11T01:07:03,42.805,6.029,-0.019,0.015,0.018,102.0,104.0,102.0,13.4,1505.2,334.1,-0.8,1.8,2471.246,13.29,0.024,308.3
2023-02-11T01:10:03,42.805,6.029,-0.004,0.003,0.008,102.0,102.0,101.0,13.4,1505.2,323.3,-0.8,1.8,2471.231,13.29,0.005,306.9
2023-02-11T01:13:03,42.805,6.029,-0.032,0.01,0.002,100.0,101.0,102.0,13.4,1505.2,327.7,-0.7,1.8,2471.254,13.29,0.033,287.4
2023-02-11T01:16:03,42.805,6.029,-0.016,0.02,0.011,103.0,101.0,102.0,13.3,1505.2,331.3,-0.8,1.8,2471.2,13.29,0.025,321.3
2023-02-11T01:19:03,42.805,6.029,-0.016,0.012,-0.025,100.0,102.0,102.0,13.4,1505.2,336.2,-0.8,1.8,2471.218,13.29,0.02,306.9
2023-02-11T01:22:03,42.805,6.029,-0.021,-0.001,0.001,103.0,102.0,101.0,13.4,1505.2,321.2,-0.8,1.8,2471.125,13.29,0.021,267.3
2023-02-11T01:25:03,42.805,6.029,-0.017,-0.002,-0.02,101.0,102.0,102.0,13.4,1505.2,320.3,-0.8,1.8,2471.152,13.29,0.017,263.3
2023-02-11T01:28:03,42.805,6.029,-0.036,0.017,-0.001,103.0,102.0,101.0,13.4,1505.2,319.2,-0.7,1.8,2471.158,13.29,0.039,295.3
2023-02-11T01:31:03,42.805,6.029,0.0,0.004,0.007,103.0,101.0,101.0,13.3,1505.2,324.2,-0.8,1.8,2471.17,13.29,0.004,0.0
2023-02-11T01:34:03,42.805,6.029,-0.033,0.012,-0.009,101.0,103.0,101.0,13.3,1505.2,328.2,-0.7,1.8,2471.182,13.29,0.035,290.0
2023-02-11T01:37:03,42.805,6.029,-0.048,0.004,-0.026,102.0,102.0,102.0,13.3,1505.2,329.0,-0.8,1.8,2471.136,13.29,0.048,274.8
2023-02-11T01:40:03,42.805,6.029,-0.023,0.019,0.0,102.0,102.0,102.0,13.3,1505.2,335.2,-0.7,1.8,2471.197,13.29,0.029,309.6
2023-02-11T01:43:03,42.805,6.029,-0.009,0.015,0.001,103.0,102.0,101.0,13.4,1505.2,323.1,-0.8,1.8,2471.186,13.29,0.017,329.0
2023-02-11T01:46:03,42.805,6.029,-0.03,-0.004,0.009,103.0,102.0,102.0,13.3,1505.2,331.2,-0.7,1.8,2471.145,13.29,0.03,262.4
2023-02-11T01:49:03,42.805,6.029,-0.007,0.01,0.021,103.0,103.0,101.0,13.4,1505.2,336.5,-0.7,1.8,2471.209,13.29,0.012,325.0
2023-02-11T01:52:03,42.805,6.029,-0.044,0.0,-0.044,103.0,102.0,101.0,13.4,1505.2,323.1,-0.8,1.8,2471.188,13.29,0.044,270.0
2023-02-11T01:55:03,42.805,6.029,-0.006,0.006,0.014,103.0,102.0,101.0,13.3,1505.2,324.0,-0.8,1.8,2471.152,13.29,0.008,315.0
2023-02-11T01:58:03,42.805,6.029,-0.023,0.016,-0.014,102.0,101.0,102.0,13.3,1505.2,327.5,-0.7,1.8,2471.149,13.29,0.028,304.8
2023-02-11T02:04:03,42.805,6.029,-0.008,0.002,-0.023,103.0,101.0,100.0,13.4,1505.2,320.8,-0.7,1.8,2471.171,13.29,0.008,284.0
2023-02-11T02:07:03,42.805,6.029,-0.018,0.004,0.02,102.0,104.0,102.0,13.4,1505.2,323.2,-0.8,1.8,2471.195,13.29,0.018,282.5
2023-02-11T02:10:03,42.805,6.029,-0.008,-0.022,-0.029,104.0,102.0,100.0,13.4,1505.2,322.7,-0.8,1.8,2471.225,13.29,0.023,200.0
2023-02-11T02:13:03,42.805,6.029,-0.029,0.008,-0.028,103.0,102.0,101.0,13.3,1505.2,337.5,-0.7,1.8,2471.16,13.29,0.03,285.4
2023-02-11T02:16:03,42.805,6.029,-0.005,0.0,-0.033,103.0,102.0,101.0,13.4,1505.2,318.3,-0.8,1.8,2471.16,13.29,0.005,270.0
2023-02-11T02:19:03,42.805,6.029,-0.027,-0.005,-0.021,103.0,103.0,100.0,13.4,1505.2,319.9,-0.8,1.8,2471.163,13.29,0.027,259.5
2023-02-11T02:22:03,42.805,6.029,-0.019,0.009,0.0,101.0,103.0,101.0,13.4,1505.2,330.8,-0.8,1.8,2471.154,13.29,0.021,295.3
2023-02-11T02:25:03,42.805,6.029,-0.02,0.0,-0.007,101.0,102.0,102.0,13.4,1505.2,322.3,-0.8,1.8,2471.163,13.29,0.02,270.0
2023-02-11T02:28:03,42.805,6.029,-0.031,0.0,-0.017,102.0,101.0,101.0,13.4,1505.2,337.5,-0.8,1.8,2471.132,13.29,0.03,270.0
2023-02-11T02:31:03,42.805,6.029,-0.012,0.03,-0.055,102.0,102.0,101.0,13.4,1505.2,333.0,-0.8,1.8,2471.196,13.29,0.032,338.2
2023-02-11T02:34:03,42.805,6.029,-0.046,0.009,0.007,102.0,103.0,101.0,13.4,1505.2,323.3,-0.8,1.8,2471.157,13.29,0.046,281.1
2023-02-11T02:37:03,42.805,6.029,-0.052,0.003,-0.026,102.0,102.0,101.0,13.4,1505.2,335.4,-0.8,1.8,2471.175,13.29,0.052,273.3
2023-02-11T02:40:03,42.805,6.029,-0.031,0.006,0.002,102.0,102.0,101.0,13.4,1505.2,325.6,-0.8,1.8,2471.146,13.29,0.031,281.0
2023-02-11T02:43:03,42.805,6.029,-0.032,0.003,-0.025,102.0,103.0,101.0,13.4,1505.2,320.6,-0.8,1.8,2471.129,13.29,0.032,275.4
2023-02-11T02:46:03,42.805,6.029,-0.023,-0.007,0.015,102.0,102.0,101.0,13.4,1505.2,323.1,-0.8,1.8,2471.142,13.29,0.024,253.1
2023-02-11T02:49:03,42.805,6.029,-0.037,0.002,-0.016,104.0,101.0,101.0,13.3,1505.2,324.4,-0.7,1.8,2471.139,13.29,0.037,273.1
2023-02-11T02:52:03,42.805,6.029,-0.028,0.0,-0.022,102.0,102.0,102.0,13.4,1505.2,334.9,-0.8,1.8,2471.119,13.29,0.028,270.0
2023-02-11T02:55:03,42.805,6.029,-0.03,0.021,0.006,103.0,102.0,102.0,13.4,1505.2,330.7,-0.7,1.8,2471.128,13.29,0.036,305.0
2023-02-11T02:58:03,42.805,6.029,-0.007,0.01,0.003,102.0,101.0,102.0,13.4,1505.2,335.8,-0.8,1.8,2471.095,13.29,0.012,325.0
2023-02-11T03:04:03,42.805,6.029,-0.024,0.001,-0.035,103.0,102.0,101.0,13.3,1505.2,316.6,-0.8,1.8,2471.222,13.29,0.024,272.4
2023-02-11T03:07:03,42.805,6.029,-0.037,0.019,0.004,103.0,102.0,102.0,13.4,1505.2,315.5,-0.8,1.8,2471.169,13.29,0.041,297.2
2023-02-11T03:10:03,42.805,6.029,-0.003,0.001,0.005,102.0,103.0,102.0,13.4,1505.2,319.9,-0.8,1.8,2471.191,13.29,0.003,288.4
2023-02-11T03:13:03,42.805,6.029,-0.002,-0.007,-0.011,104.0,103.0,101.0,13.4,1505.2,323.4,-0.7,1.8,2471.181,13.29,0.007,195.9
2023-02-11T03:16:03,42.805,6.029,-0.011,0.002,0.001,103.0,102.0,103.0,13.3,1505.2,322.9,-0.8,1.9,2471.182,13.29,0.011,280.3
2023-02-11T03:19:03,42.805,6.029,-0.012,0.009,-0.03,105.0,101.0,100.0,13.4,1505.2,323.7,-0.8,1.8,2471.127,13.29,0.015,306.9
2023-02-11T03:22:03,42.805,6.029,-0.025,-0.012,-0.044,100.0,103.0,101.0,13.4,1505.2,319.1,-0.8,1.8,2471.141,13.29,0.027,244.4
2023-02-11T03:25:03,42.805,6.029,-0.04,0.015,-0.021,103.0,104.0,101.0,13.4,1505.2,324.0,-0.7,1.8,2471.114,13.29,0.042,290.6
2023-02-11T03:28:03,42.805,6.029,-0.017,0.014,-0.027,103.0,103.0,102.0,13.4,1505.2,322.3,-0.8,1.8,2471.131,13.29,0.022,309.5
2023-02-11T03:31:03,42.805,6.029,-0.045,0.007,0.007,103.0,101.0,102.0,13.3,1505.2,332.5,-0.8,1.8,2471.132,13.29,0.045,278.8
2023-02-11T03:34:03,42.805,6.029,-0.003,0.002,0.007,104.0,101.0,101.0,13.4,1505.2,328.0,-0.8,1.8,2471.131,13.29,0.003,303.7
2023-02-11T03:37:03,42.805,6.029,-0.017,0.043,-0.01,103.0,102.0,102.0,13.3,1505.2,337.1,-0.7,1.8,2471.127,13.29,0.046,338.4
2023-02-11T03:40:03,42.805,6.029,-0.017,0.023,0.001,102.0,102.0,102.0,13.4,1505.2,339.4,-0.8,1.8,2471.12,13.29,0.028,323.5
2023-02-11T03:43:03,42.805,6.029,0.0,-0.005,-0.026,102.0,103.0,101.0,13.3,1505.2,322.7,-0.8,1.8,2471.121,13.29,0.005,180.0
2023-02-11T03:46:03,42.805,6.029,-0.003,0.003,-0.006,101.0,102.0,102.0,13.4,1505.2,325.8,-0.7,1.8,2471.105,13.29,0.004,315.0
2023-02-11T03:49:03,42.805,6.029,-0.018,-0.004,-0.016,102.0,104.0,101.0,13.4,1505.2,329.0,-0.7,1.8,2471.127,13.29,0.018,257.5
2023-02-11T03:52:03,42.805,6.029,-0.027,0.0,-0.033,103.0,103.0,102.0,13.4,1505.2,335.2,-0.8,1.8,2471.116,13.29,0.026,270.0
2023-02-11T03:55:03,42.805,6.029,-0.029,0.012,-0.006,102.0,102.0,102.0,13.3,1505.2,328.7,-0.8,1.8,2471.118,13.29,0.031,292.5
2023-02-11T03:58:03,42.805,6.029,-0.014,0.024,0.009,102.0,104.0,102.0,13.4,1505.2,331.9,-0.8,1.8,2471.142,13.29,0.027,329.7
2023-02-11T04:04:03,42.805,6.029,-0.037,0.0,-0.022,103.0,102.0,102.0,13.4,1505.2,324.8,-0.7,1.8,2471.196,13.29,0.037,270.0
2023-02-11T04:07:03,42.805,6.029,-0.045,0.008,-0.012,101.0,103.0,102.0,13.4,1505.2,325.0,-0.8,1.8,2471.142,13.29,0.045,280.1
2023-02-11T04:10:03,42.805,6.029,-0.028,0.002,-0.009,103.0,103.0,102.0,13.4,1505.2,321.2,-0.8,1.8,2471.123,13.29,0.028,274.1
2023-02-11T04:13:03,42.805,6.029,-0.021,0.008,-0.017,107.0,103.0,103.0,13.4,1505.2,329.3,-0.7,1.8,2471.169,13.29,0.022,290.9
2023-02-11T04:16:03,42.805,6.029,-0.025,0.0,-0.017,102.0,102.0,102.0,13.4,1505.2,333.0,-0.8,1.8,2471.142,13.29,0.025,270.0
2023-02-11T04:19:03,42.805,6.029,-0.009,0.024,-0.008,104.0,101.0,102.0,13.4,1505.2,332.1,-0.7,1.8,2471.12,13.29,0.025,339.4
2023-02-11T04:22:03,42.805,6.029,-0.011,0.016,0.002,105.0,103.0,102.0,13.4,1505.2,323.1,-0.8,1.8,2471.089,13.29,0.019,325.5
2023-02-11T04:25:03,42.805,6.029,-0.023,-0.004,-0.033,102.0,103.0,102.0,13.4,1505.2,336.0,-0.8,1.8,2471.082,13.29,0.023,260.1
2023-02-11T04:28:03,42.805,6.029,-0.017,0.014,0.003,103.0,102.0,102.0,13.4,1505.2,324.7,-0.7,1.8,2471.13,13.29,0.022,309.5
2023-02-11T04:31:03,42.805,6.029,-0.035,0.018,-0.036,102.0,103.0,102.0,13.4,1505.2,322.4,-0.7,1.8,2471.118,13.29,0.039,297.2
2023-02-11T04:34:03,42.805,6.029,-0.034,0.033,0.006,104.0,102.0,102.0,13.3,1505.2,327.2,-0.8,1.8,2471.085,13.29,0.047,314.1
2023-02-11T04:37:03,42.805,6.029,-0.02,0.018,0.003,108.0,103.0,102.0,13.4,1505.2,327.5,-0.8,1.8,2471.108,13.29,0.026,312.0
2023-02-11T04:40:03,42.805,6.029,-0.013,0.017,-0.005,103.0,102.0,101.0,13.4,1505.2,335.6,-0.7,1.8,2471.123,13.29,0.021,322.6
2023-02-11T04:43:03,42.805,6.029,-0.027,0.016,-0.019,103.0,103.0,101.0,13.4,1505.2,322.6,-0.8,1.8,2471.102,13.29,0.031,300.7
2023-02-11T04:46:03,42.805,6.029,-0.023,0.01,-0.012,102.0,103.0,102.0,13.4,1505.2,326.3,-0.8,1.8,2471.105,13.29,0.025,293.5
2023-02-11T04:49:03,42.805,6.029,-0.038,-0.011,-0.032,102.0,102.0,102.0,13.4,1505.2,315.5,-0.8,1.8,2471.098,13.29,0.039,253.9
2023-02-11T04:52:03,42.805,6.029,-0.012,0.023,0.001,102.0,102.0,102.0,13.4,1505.2,335.6,-0.8,1.8,2471.103,13.29,0.025,332.4
2023-02-11T04:55:03,42.805,6.029,-0.02,-0.007,0.001,102.0,103.0,102.0,13.3,1505.2,318.6,-0.8,1.8,2471.11,13.29,0.021,250.7
2023-02-11T04:58:03,42.805,6.029,-0.021,0.015,0.0,102.0,102.0,102.0,13.3,1505.2,325.8,-0.7,1.8,2471.107,13.29,0.025,305.5
2023-02-11T05:04:03,42.805,6.029,-0.014,0.027,0.003,103.0,104.0,101.0,13.4,1505.2,331.2,-0.7,1.8,2471.158,13.29,0.03,332.6
2023-02-11T05:07:03,42.805,6.029,-0.01,0.003,-0.037,102.0,103.0,102.0,13.4,1505.2,325.6,-0.7,1.8,2471.139,13.29,0.01,286.7
2023-02-11T05:10:03,42.805,6.029,-0.021,0.019,-0.007,103.0,102.0,100.0,13.4,1505.2,320.3,-0.8,1.8,2471.148,13.29,0.028,312.1
2023-02-11T05:13:03,42.805,6.029,-0.03,0.006,-0.019,102.0,103.0,102.0,13.4,1505.2,315.0,-0.8,1.8,2471.183,13.29,0.03,281.3
2023-02-11T05:16:03,42.805,6.029,-0.052,0.024,-0.033,102.0,103.0,102.0,13.4,1505.2,340.3,-0.7,1.8,2471.147,13.29,0.057,294.8
2023-02-11T05:19:03,42.805,6.029,-0.019,0.01,-0.008,102.0,103.0,102.0,13.4,1505.2,322.4,-0.7,1.8,2471.15,13.29,0.021,297.8
2023-02-11T05:22:03,42.805,6.029,-0.015,0.004,0.0,104.0,102.0,102.0,13.4,1505.2,324.4,-0.7,1.8,2471.084,13.29,0.015,284.9
2023-02-11T05:25:03,42.805,6.029,-0.039,0.014,-0.01,102.0,103.0,102.0,13.4,1505.2,315.5,-0.8,1.8,2471.151,13.29,0.041,289.7
2023-02-11T05:28:03,42.805,6.029,-0.04,0.017,0.022,104.0,102.0,102.0,13.3,1505.2,321.2,-0.8,1.8,2471.048,13.29,0.043,293.0
2023-02-11T05:31:03,42.805,6.029,-0.036,0.019,0.0,102.0,102.0,101.0,13.3,1505.2,323.3,-0.8,1.8,2471.124,13.29,0.04,297.8
2023-02-11T05:34:03,42.805,6.029,-0.034,0.023,-0.002,105.0,103.0,102.0,13.4,1505.2,335.5,-0.7,1.8,2471.101,13.29,0.041,304.1
2023-02-11T05:37:03,42.805,6.029,-0.01,0.045,0.033,102.0,102.0,101.0,13.3,1505.2,334.9,-0.7,1.8,2471.111,13.29,0.046,347.5
2023-02-11T05:40:03,42.805,6.029,-0.022,0.017,-0.003,103.0,101.0,101.0,13.4,1505.2,339.4,-0.8,1.8,2471.04,13.29,0.027,307.7
2023-02-11T05:43:03,42.805,6.029,-0.024,0.033,-0.001,102.0,102.0,102.0,13.4,1505.2,337.6,-0.8,1.8,2471.116,13.29,0.04,324.0
2023-02-11T05:46:03,42.805,6.029,-0.011,0.014,-0.018,103.0,102.0,102.0,13.3,1505.2,337.3,-0.8,1.8,2471.097,13.29,0.017,321.8
2023-02-11T05:49:03,42.805,6.029,-0.002,0.013,-0.005,104.0,102.0,102.0,13.3,1505.2,339.5,-0.8,1.8,2471.093,13.29,0.013,351.3
2023-02-11T05:52:03,42.805,6.029,-0.016,0.014,0.003,103.0,103.0,100.0,13.4,1505.2,325.0,-0.8,1.8,2471.094,13.29,0.021,311.2
2023-02-11T05:55:03,42.805,6.029,-0.007,0.003,0.003,103.0,103.0,101.0,13.4,1505.2,332.2,-0.8,1.8,2471.116,13.29,0.007,293.2
2023-02-11T05:58:03,42.805,6.029,-0.018,0.025,0.027,103.0,104.0,102.0,13.4,1505.2,322.7,-0.8,1.8,2471.088,13.29,0.03,324.2
2023-02-11T06:04:03,42.805,6.029,-0.013,0.013,-0.003,104.0,103.0,102.0,13.4,1505.2,319.0,-0.8,1.8,2471.178,13.29,0.018,315.0
2023-02-11T06:07:03,42.805,6.029,-0.002,0.021,0.0,103.0,102.0,103.0,13.4,1505.2,333.0,-0.8,1.8,2471.121,13.29,0.021,354.6
2023-02-11T06:10:03,42.805,6.029,-0.023,0.002,-0.017,102.0,103.0,102.0,13.4,1505.2,323.1,-0.8,1.8,2471.179,13.29,0.023,275.0
2023-02-11T06:13:03,42.805,6.029,-0.001,0.016,-0.015,102.0,103.0,101.0,13.3,1505.2,335.6,-0.8,1.8,2471.186,13.29,0.016,356.4
2023-02-11T06:16:03,42.805,6.029,-0.007,0.009,-0.008,102.0,102.0,102.0,13.4,1505.2,324.0,-0.8,1.8,2471.145,13.29,0.011,322.1
2023-02-11T06:19:03,42.805,6.029,-0.009,0.03,0.049,104.0,102.0,102.0,13.3,1505.2,324.4,-0.8,1.8,2471.151,13.29,0.031,343.3
2023-02-11T06:22:03,42.805,6.029,-0.038,0.007,-0.035,102.0,104.0,101.0,13.4,1505.2,331.3,-0.8,1.8,2471.138,13.29,0.038,280.4
2023-02-11T06:25:03,42.805,6.029,-0.01,0.021,0.023,103.0,103.0,101.0,13.3,1505.2,323.4,-0.8,1.8,2471.12,13.29,0.023,334.5
2023-02-11T06:28:03,42.805,6.029,-0.038,0.031,0.01,101.0,103.0,101.0,13.3,1505.2,330.0,-0.8,1.8,2471.135,13.29,0.049,309.2
2023-02-11T06:31:03,42.805,6.029,-0.019,0.0,-0.014,102.0,103.0,101.0,13.3,1505.2,324.0,-0.7,1.8,2471.113,13.29,0.019,270.0
2023-02-11T06:34:03,42.805,6.029,-0.027,0.02,-0.018,102.0,103.0,101.0,13.4,1505.2,331.8,-0.8,1.8,2471.102,13.29,0.033,306.5
2023-02-11T06:37:03,42.805,6.029,0.006,0.004,0.009,103.0,103.0,101.0,13.3,1505.2,329.9,-0.8,1.8,2471.12,13.29,0.007,56.3
2023-02-11T06:40:03,42.805,6.029,-0.006,0.003,0.003,103.0,101.0,102.0,13.4,1505.2,322.4,-0.8,1.8,2471.109,13.29,0.006,296.6
2023-02-11T06:43:03,42.805,6.029,-0.047,0.02,0.014,103.0,102.0,101.0,13.4,1505.2,324.7,-0.7,1.8,2471.121,13.29,0.051,293.0
2023-02-11T06:46:03,42.805,6.029,-0.022,-0.003,-0.017,102.0,102.0,102.0,13.4,1505.2,327.9,-0.7,1.8,2471.129,13.29,0.022,262.2
2023-02-11T06:49:03,42.805,6.029,-0.012,0.037,0.032,103.0,102.0,101.0,13.3,1505.2,323.6,-0.7,1.8,2471.165,13.29,0.038,342.0
2023-02-11T06:52:03,42.805,6.029,-0.016,0.03,0.016,102.0,103.0,102.0,13.4,1505.2,323.6,-0.8,1.8,2471.103,13.29,0.034,331.9
2023-02-11T06:55:03,42.805,6.029,-0.003,0.001,-0.019,102.0,102.0,102.0,13.4,1505.2,330.9,-0.8,1.8,2471.113,13.29,0.003,288.4
2023-02-11T06:58:03,42.805,6.029,-0.028,0.011,0.001,103.0,101.0,102.0,13.4,1505.2,329.6,-0.8,1.8,2471.116,13.29,0.03,291.4
2023-02-11T07:04:03,42.805,6.029,-0.007,0.008,-0.006,101.0,103.0,101.0,13.3,1505.2,337.3,-0.8,1.8,2471.193,13.29,0.01,318.8
2023-02-11T07:07:03,42.805,6.029,-0.005,-0.006,-0.027,102.0,101.0,102.0,13.4,1505.2,330.8,-0.8,1.8,2471.152,13.29,0.007,219.8
2023-02-11T07:10:03,42.805,6.029,-0.008,0.004,-0.016,102.0,102.0,101.0,13.4,1505.2,329.4,-0.7,1.8,2471.16,13.29,0.008,296.6
2023-02-11T07:13:03,42.805,6.029,-0.017,0.025,0.013,103.0,103.0,100.0,13.4,1505.2,315.5,-0.8,1.8,2471.198,13.29,0.03,325.8
2023-02-11T07:16:03,42.805,6.029,-0.025,0.012,0.009,102.0,102.0,101.0,13.3,1505.2,330.9,-0.7,1.8,2471.142,13.29,0.027,295.6
2023-02-11T07:19:03,42.805,6.029,-0.036,0.007,-0.004,102.0,102.0,100.0,13.4,1505.2,315.5,-0.8,1.8,2471.186,13.29,0.036,281.0
2023-02-11T07:22:03,42.805,6.029,-0.039,0.014,0.026,102.0,102.0,101.0,13.4,1505.2,324.0,-0.7,1.8,2471.179,13.29,0.041,289.7
2023-02-11T07:25:03,42.805,6.029,-0.011,0.008,-0.004,102.0,104.0,101.0,13.4,1505.2,326.7,-0.8,1.8,2471.206,13.29,0.013,306.0
2023-02-11T07:28:03,42.805,6.029,0.003,0.004,-0.01,102.0,102.0,101.0,13.3,1505.2,330.0,-0.8,1.8,2471.16,13.29,0.005,36.9
2023-02-11T07:31:03,42.805,6.029,-0.011,0.014,-0.034,102.0,103.0,100.0,13.3,1505.2,327.3,-0.8,1.8,2471.187,13.29,0.017,321.8
2023-02-11T07:34:03,42.805,6.029,-0.019,0.012,-0.024,101.0,103.0,101.0,13.4,1505.2,328.7,-0.7,1.8,2471.157,13.29,0.022,302.3
2023-02-11T07:37:03,42.805,6.029,-0.034,0.039,-0.003,102.0,102.0,102.0,13.4,1505.2,323.3,-0.8,1.8,2471.192,13.29,0.051,318.9
2023-02-11T07:40:03,42.805,6.029,-0.027,0.018,0.007,102.0,102.0,102.0,13.3,1505.2,322.4,-0.7,1.8,2471.212,13.29,0.032,303.7
2023-02-11T07:43:03,42.805,6.029,-0.015,0.015,-0.026,104.0,101.0,101.0,13.4,1505.2,323.6,-0.8,1.8,2471.177,13.29,0.021,315.0
2023-02-11T07:46:03,42.805,6.029,-0.016,0.024,0.005,103.0,102.0,102.0,13.4,1505.2,332.2,-0.8,1.8,2471.181,13.29,0.028,326.3
2023-02-11T07:49:03,42.805,6.029,0.006,-0.001,0.008,104.0,103.0,101.0,13.4,1505.2,322.2,-0.8,1.8,2471.176,13.29,0.006,99.5
2023-02-11T07:52:03,42.805,6.029,-0.007,0.01,-0.01,103.0,103.0,101.0,13.3,1505.2,325.2,-0.8,1.8,2471.199,13.29,0.012,325.0
2023-02-11T07:55:03,42.805,6.029,0.008,0.014,0.008,103.0,103.0,103.0,13.4,1505.2,336.5,-0.8,1.8,2471.146,13.29,0.016,29.7
2023-02-11T07:58:03,42.805,6.029,0.011,0.014,0.0,103.0,102.0,100.0,13.4,1505.2,323.1,-0.8,1.8,2471.224,13.29,0.017,38.2
2023-02-11T08:04:03,42.805,6.029,-0.012,0.028,0.009,103.0,103.0,101.0,13.3,1505.2,324.1,-0.8,1.8,2471.286,13.29,0.03,336.8
2023-02-11T08:07:03,42.805,6.029,-0.005,0.008,-0.026,103.0,104.0,102.0,13.3,1505.2,322.6,-0.8,1.8,2471.287,13.29,0.009,328.0
2023-02-11T08:10:03,42.805,6.029,0.007,0.031,0.035,102.0,102.0,101.0,13.3,1505.2,325.0,-0.8,1.8,2471.247,13.29,0.031,12.7
2023-02-11T08:13:03,42.805,6.029,0.014,0.007,0.006,102.0,102.0,101.0,13.4,1505.2,321.4,-0.7,1.8,2471.209,13.29,0.015,63.4
2023-02-11T08:16:03,42.805,6.029,0.008,-0.031,-0.039,102.0,103.0,101.0,13.4,1505.2,330.0,-0.7,1.8,2471.205,13.29,0.032,165.5
2023-02-11T08:19:03,42.805,6.029,-0.029,0.034,0.004,103.0,102.0,102.0,13.4,1505.2,329.9,-0.8,1.8,2471.243,13.29,0.044,319.5
2023-02-11T08:22:03,42.805,6.029,0.01,-0.006,0.0,102.0,102.0,101.0,13.4,1505.2,336.5,-0.8,1.8,2471.256,13.29,0.011,121.0
2023-02-11T08:25:03,42.805,6.029,-0.017,0.006,-0.001,103.0,101.0,101.0,13.3,1505.2,329.0,-0.8,1.8,2471.242,13.29,0.018,289.4
2023-02-11T08:28:03,42.805,6.029,-0.023,0.023,0.017,102.0,102.0,101.0,13.4,1505.2,331.1,-0.8,1.8,2471.237,13.29,0.032,315.0
2023-02-11T08:31:03,42.805,6.029,-0.016,0.022,0.012,102.0,102.0,102.0,13.4,1505.2,321.6,-0.8,1.8,2471.256,13.29,0.027,324.0
2023-02-11T08:34:03,42.805,6.029,0.0,0.009,0.013,103.0,101.0,101.0,13.4,1505.2,335.7,-0.8,1.8,2471.241,13.29,0.009,0.0
2023-02-11T08:37:03,42.805,6.029,-0.015,0.004,-0.001,102.0,102.0,101.0,13.4,1505.2,317.1,-0.8,1.8,2471.243,13.29,0.015,284.9
2023-02-11T08:40:03,42.805,6.029,0.001,-0.015,-0.028,102.0,102.0,102.0,13.4,1505.2,317.7,-0.8,1.8,2471.194,13.29,0.015,176.2
2023-02-11T08:43:03,42.805,6.029,-0.022,0.005,-0.001,102.0,102.0,101.0,13.3,1505.2,321.3,-0.7,1.8,2471.261,13.29,0.022,282.8
2023-02-11T08:46:03,42.805,6.029,-0.023,0.006,-0.038,101.0,102.0,101.0,13.3,1505.2,336.9,-0.8,1.8,2471.236,13.29,0.023,284.6
2023-02-11T08:49:03,42.805,6.029,0.002,0.014,0.017,103.0,103.0,101.0,13.4,1505.2,332.2,-0.8,1.8,2471.28,13.29,0.014,8.1
2023-02-11T08:52:03,42.805,6.029,-0.008,0.001,0.035,103.0,101.0,102.0,13.4,1505.2,322.6,-0.8,1.8,2471.231,13.29,0.008,277.1
2023-02-11T08:55:03,42.805,6.029,0.006,0.005,0.009,102.0,102.0,101.0,13.4,1505.2,322.9,-0.8,1.8,2471.266,13.29,0.007,50.2
2023-02-11T08:58:03,42.805,6.029,-0.02,0.007,0.03,101.0,102.0,101.0,13.4,1505.2,328.0,-0.7,1.8,2471.27,13.29,0.021,289.3
2023-02-11T09:04:03,42.805,6.029,-0.019,-0.006,-0.029,103.0,102.0,101.0,13.4,1505.2,328.0,-0.8,1.8,2471.32,13.29,0.019,252.5
2023-02-11T09:07:03,42.805,6.029,-0.017,-0.001,0.003,102.0,100.0,102.0,13.4,1505.2,320.7,-0.8,1.8,2471.288,13.29,0.017,266.6
2023-02-11T09:10:03,42.805,6.029,-0.039,0.012,-0.006,103.0,103.0,100.0,13.4,1505.2,315.5,-0.7,1.8,2471.3,13.29,0.04,287.1
2023-02-11T09:13:03,42.805,6.029,-0.003,0.016,0.025,102.0,104.0,101.0,13.4,1505.2,333.8,-0.8,1.8,2471.298,13.29,0.016,349.4
2023-02-11T09:16:03,42.805,6.029,-0.012,0.008,-0.021,102.0,101.0,101.0,13.4,1505.2,330.7,-0.7,1.8,2471.282,13.29,0.014,303.7
2023-02-11T09:19:03,42.805,6.029,-0.017,0.002,0.0,102.0,102.0,101.0,13.3,1505.2,316.1,-0.8,1.8,2471.289,13.29,0.017,276.7
2023-02-11T09:22:03,42.805,6.029,-0.019,-0.022,-0.031,101.0,102.0,101.0,13.3,1505.2,322.3,-0.8,1.8,2471.288,13.29,0.029,220.8
2023-02-11T09:25:03,42.805,6.029,-0.027,0.019,0.003,102.0,102.0,101.0,13.3,1505.2,324.0,-0.8,1.8,2471.305,13.29,0.033,305.1
2023-02-11T09:28:03,42.805,6.029,-0.016,0.025,0.004,103.0,102.0,101.0,13.3,1505.2,333.8,-0.8,1.8,2471.294,13.29,0.029,327.4
2023-02-11T09:31:03,42.805,6.029,-0.016,0.016,-0.006,103.0,102.0,101.0,13.4,1505.2,324.4,-0.7,1.8,2471.275,13.29,0.022,315.0
2023-02-11T09:34:03,42.805,6.029,-0.019,0.021,0.015,102.0,102.0,101.0,13.4,1505.2,320.2,-0.7,1.8,2471.283,13.29,0.028,317.9
2023-02-11T09:37:03,42.805,6.029,-0.007,-0.002,-0.017,102.0,102.0,101.0,13.4,1505.2,317.1,-0.7,1.8,2471.246,13.29,0.007,254.1
2023-02-11T09:40:03,42.805,6.029,-0.021,0.005,0.003,102.0,101.0,103.0,13.4,1505.2,319.9,-0.8,1.8,2471.293,13.29,0.021,283.4
2023-02-11T09:43:03,42.805,6.029,0.007,0.009,0.001,102.0,101.0,102.0,13.4,1505.2,329.8,-0.8,1.8,2471.275,13.29,0.011,37.9
2023-02-11T09:46:03,42.805,6.029,0.0,0.022,0.009,101.0,102.0,101.0,13.3,1505.2,323.1,-0.8,1.8,2471.308,13.29,0.022,0.0
2023-02-11T09:49:03,42.805,6.029,-0.023,0.005,-0.016,101.0,102.0,100.0,13.3,1505.2,335.8,-0.8,1.8,2471.288,13.29,0.023,282.3
2023-02-11T09:52:03,42.805,6.029,0.008,-0.008,-0.02,102.0,103.0,101.0,13.3,1505.2,329.5,-0.8,1.8,2471.263,13.29,0.011,135.0
2023-02-11T09:55:03,42.805,6.029,-0.016,-0.006,0.013,102.0,102.0,101.0,13.4,1505.2,338.7,-0.7,1.8,2471.264,13.29,0.017,249.4